Погода в Исети

Россия / Свердловская область     56°58′17″N   60°21′25″E
темп.,
°C
ветер,
м/с
пор.,
м/с
влажн.,
%
обл.,
%
осадки,
мм/ч
давл.,
гПа
погр.,
м
19 января, вт
вт1923:00−22з399524 0.0 1021192
02:00−22з22930 0.0 102120
05:00−22зюз11903 0.0 102220
08:00−20ююз128781 0.0 102120
11:00−18вюв118591 0.0 102168
14:00−15вюв2585100 0.0 1020225
17:00−16вюв2892100 0.0 1020276
20:00−16юв3995100 0.1 1019383
20 января, ср
ср2023:00−15юв41095100 0.7 1018471
02:00−15вюв41095100 0.8 1017435
05:00−15вюв4895100 1.8 1016415
08:00−16вюв3896100 0.8 1014413
11:00−16вюв3595100 1.3 1013414
14:00−15юв2394100 0.7 1011356
17:00−16ююз0197100 1.4 101120
20:00−16з1297100 0.6 1011116
21 января, чт
чт2123:00−16з51191100 1.0 1011605
02:00−18з51293100 0.2 1011574
05:00−18з61390100 0.4 1012539
08:00−19з61291100 0.0 1012496
11:00−19з61391100 0.1 1013468
14:00−18з6139199 0.0 1013434
17:00−19з5129299 0.0 1014407
20:00−20з5139299 0.0 1015421
22 января, пт
пт2223:00−20з5139399 0.0 1015429
02:00−20з4119498 0.0 1014413
05:00−21з4119599 0.1 1014332
08:00−20зюз279799 0.0 1014238
11:00−18юз1396100 0.3 1013250
14:00−16юв1192100 0.4 1013284
17:00−17св2497100 0.8 1014148
20:00−23св3698100 0.3 1016247
23 января, сб
сб2323:00−26св2598100 0.4 1019244
02:00−29ссв259999 0.1 1022154
05:00−33ссв2399100 0.1 102578
08:00−35ссв1299100 0.0 102819
11:00−33всв129792 0.0 103086
14:00−29в2393100 0.0 1030220
17:00−29в2396100 0.0 1031221
20:00−29в2597100 0.0 1032248